sat.trackr.live / text

‹ back to catalog

STARLINK-36123

NORAD 67007 · 2025-293E

PAYLOAD ACTIVE UNKNOWN

§ Identity

Operator
Country
US
Launch date
2025-12-10
Launch site
AFWTR
Launch vehicle
Mass (kg)
RCS (m²)

Purposes: comms

External: N2YO · Heavens-Above · Gunter

§ Orbital elements

Epoch: 2026-09-20T14:00:56.445696Z

Period
96.11 min
Inclination
70.0014°
Eccentricity
0.0003577
Mean motion
14.98340204 rev/d
Perigee alt
569.5 km
Apogee alt
574.5 km
Semi-major
6,950.2 km
B*
2.5379e-4
RAAN
322.9575°
Arg perigee
271.6271°
Mean anomaly
88.4478°
Rev number
4,408

§ Raw data

STARLINK-361231 67007U 25293E   26263.58398664  .00002937  00000+0  25379-3 0  99982 67007  70.0014 322.9575 0003577 271.6271  88.4478 14.98340204 44085

JSON: /api/v1/satellites/67007 · /tle

For live sub-satellite position, see the globe view (requires WebGL).

§ Visibility from observer

Set your observer location to see the next 7 days of passes ≥ 10°. The values pass through the URL so the page stays shareable.

No JS? Fill the form by hand. The geolocation button needs JavaScript.